EW2013 Weather Reports


time (UTC)temp
C
wind
direction
speed
KPH
gust
KPH
rain 1hr
cm
rain 24hr
cm
rain mn
cm
humidity
%
barometer
mb
20260906220707 32 345 3.2 11.3 0.00 0.00 0.00 35 1017.2
20260906220206 32 355 3.2 11.3 0.00 0.00 0.00 34 1017.2
20260906215705 32 355 3.2 11.3 0.00 0.00 0.00 34 1017.3
20260906215206 32 61 3.2 11.3 0.00 0.00 0.00 34 1017.4
20260906214205 32 53 4.8 14.5 0.00 0.00 0.00 33 1017.4
20260906213706 32 336 4.8 14.5 0.00 0.00 0.00 34 1017.5
20260906213204 32 51 4.8 14.5 0.00 0.00 0.00 33 1017.5
20260906212710 32 293 4.8 11.3 0.00 0.00 0.00 33 1017.6
20260906212205 32 335 3.2 9.7 0.00 0.00 0.00 33 1017.7
20260906211706 32 315 1.6 9.7 0.00 0.00 0.00 33 1018.0
20260906211205 33 335 1.6 9.7 0.00 0.00 0.00 32 1018.1
20260906210206 32 13 3.2 14.5 0.00 0.00 0.00 33 1018.2
20260906205704 32 57 3.2 17.7 0.00 0.00 0.00 33 1018.2
20260906205205 32 34 4.8 17.7 0.00 0.00 0.00 34 1018.3
20260906204205 32 57 3.2 11.3 0.00 0.00 0.00 35 1018.3
20260906203705 32 17 3.2 11.3 0.00 0.00 0.00 36 1018.4
20260906203205 32 10 3.2 11.3 0.00 0.00 0.00 35 1018.6
20260906202705 32 298 1.6 9.7 0.00 0.00 0.00 35 1018.4
20260906202205 32 212 3.2 9.7 0.00 0.00 0.00 35 1018.7
20260906201707 32 19 3.2 14.5 0.00 0.00 0.00 37 1018.6
20260906200206 31 292 4.8 14.5 0.00 0.00 0.00 37 1018.8
20260906195704 31 328 3.2 14.5 0.00 0.00 0.00 36 1018.8
20260906195210 31 33 3.2 9.7 0.00 0.00 0.00 36 1018.9
20260906194704 31 59 1.6 11.3 0.00 0.00 0.00 39 1018.9
20260906194206 31 333 0.0 12.9 0.00 0.00 0.00 38 1018.9
20260906193204 30 33 4.8 12.9 0.00 0.00 0.00 37 1019.1
20260906192705 31 53 1.6 11.3 0.00 0.00 0.00 33 1019.1
20260906192205 31 44 1.6 12.9 0.00 0.00 0.00 38 1019.3
20260906191706 31 92 3.2 12.9 0.00 0.00 0.00 34 1019.3
20260906191205 31 78 3.2 12.9 0.00 0.00 0.00 35 1019.4
20260906190705 30 71 3.2 12.9 0.00 0.00 0.00 35 1019.4
20260906190204 30 87 4.8 9.7 0.00 0.00 0.00 37 1019.5
20260906185704 30 81 3.2 9.7 0.00 0.00 0.00 39 1019.6
20260906184705 30 15 3.2 12.9 0.00 0.00 0.00 41 1020.0
20260906184205 29 22 3.2 8.0 0.00 0.00 0.00 45 1020.1
20260906183205 29 46 1.6 8.0 0.00 0.00 0.00 46 1020.3
20260906182704 28 51 1.6 8.0 0.00 0.00 0.00 46 1020.3
20260906182204 29 287 1.6 8.0 0.00 0.00 0.00 46 1020.3
20260906181705 28 19 1.6 8.0 0.00 0.00 0.00 46 1020.5
20260906181205 28 342 1.6 8.0 0.00 0.00 0.00 52 1020.5
20260906180705 28 58 1.6 8.0 0.00 0.00 0.00 52 1020.7
20260906180204 28 26 1.6 8.0 0.00 0.00 0.00 53 1020.8
20260906175704 27 50 3.2 8.0 0.00 0.00 0.00 55 1020.9
20260906175204 27 47 1.6 8.0 0.00 0.00 0.00 54 1021.1
20260906174205 26 47 3.2 8.0 0.00 0.00 0.00 55 1021.4
20260906173705 26 53 3.2 8.0 0.00 0.00 0.00 56 1021.5
20260906173205 26 53 3.2 11.3 0.00 0.00 0.00 56 1021.6
20260906172704 26 58 1.6 11.3 0.00 0.00 0.00 56 1021.6
20260906171705 25 84 1.6 8.0 0.00 0.00 0.00 59 1021.6
20260906170704 26 34 1.6 6.4 0.00 0.00 0.00 59 1022.0
20260906165706 25 34 1.6 6.4 0.00 0.00 0.00 61 1022.1
20260906164705 25 24 1.6 8.0 0.00 0.00 0.00 62 1022.2
20260906164204 25 23 1.6 8.0 0.00 0.00 0.00 63 1022.1
20260906163704 25 31 1.6 8.0 0.00 0.00 0.00 64 1022.1
20260906162704 24 346 1.6 4.8 0.00 0.00 0.00 63 1022.1
20260906162204 23 350 0.0 6.4 0.00 0.00 0.00 68 1022.2
20260906161705 23 350 1.6 6.4 0.00 0.00 0.00 66 1022.2
20260906161206 23 348 1.6 6.4 0.00 0.00 0.00 65 1022.1
20260906160710 23 350 1.6 8.0 0.00 0.00 0.00 64 1022.1
20260906160205 23 351 1.6 8.0 0.00 0.00 0.00 68 1022.1
20260906155705 23 355 1.6 8.0 0.00 0.00 0.00 68 1022.1
20260906154704 22 42 1.6 8.0 0.00 0.00 0.00 69 1022.2
20260906153705 22 36 1.6 6.4 0.00 0.00 0.00 69 1022.3
20260906153205 22 36 1.6 6.4 0.00 0.00 0.00 70 1022.3
20260906152705 22 38 1.6 8.0 0.00 0.00 0.00 71 1022.3
20260906152205 21 38 1.6 8.0 0.00 0.00 0.00 72 1022.3
20260906151704 21 41 1.6 8.0 0.00 0.00 0.00 73 1022.3
20260906151205 21 5 3.2 8.0 0.00 0.00 0.00 74 1022.3
20260906150705 21 5 3.2 8.0 0.00 0.00 0.00 75 1022.4
20260906145705 20 323 1.6 8.0 0.00 0.00 0.00 77 1022.3
20260906144704 19 323 1.6 6.4 0.00 0.00 0.00 79 1022.3
20260906144205 19 323 3.2 8.0 0.00 0.00 0.00 78 1022.4
20260906143704 19 323 3.2 9.7 0.00 0.00 0.00 78 1022.4
20260906142704 20 348 3.2 9.7 0.00 0.00 0.00 78 1022.3
20260906141704 19 321 3.2 9.7 0.00 0.00 0.00 80 1022.3
20260906141205 18 309 3.2 9.7 0.00 0.00 0.00 79 1022.3
20260906140204 18 302 1.6 9.7 0.00 0.00 0.00 80 1022.3
20260906135704 18 287 1.6 6.4 0.00 0.00 0.00 81 1022.2
20260906135204 17 348 1.6 6.4 0.00 0.00 0.00 81 1022.3
20260906134705 17 348 1.6 6.4 0.00 0.00 0.00 81 1022.2
20260906134205 17 355 1.6 6.4 0.00 0.00 0.00 81 1022.1
20260906133704 17 355 1.6 6.4 0.00 0.00 0.00 81 1022.1
20260906133205 16 355 1.6 3.2 0.00 0.00 0.00 82 1022.2
20260906132705 16 355 0.0 4.8 0.00 0.00 0.00 81 1022.2
20260906131705 16 355 0.0 6.4 0.00 0.00 0.00 81 1022.1
20260906131206 16 355 1.6 6.4 0.00 0.00 0.00 81 1022.1
20260906130707 16 355 1.6 6.4 0.00 0.00 0.00 81 1022.1
20260906130205 16 355 0.0 0.0 0.00 0.00 0.00 81 1022.0
20260906125706 16 355 0.0 0.0 0.00 0.00 0.00 81 1022.1
20260906125205 16 355 0.0 0.0 0.00 0.00 0.00 81 1022.0
20260906124706 16 355 0.0 0.0 0.00 0.00 0.00 80 1021.8
20260906124205 16 355 0.0 0.0 0.00 0.00 0.00 80 1021.7
20260906123707 16 355 0.0 0.0 0.00 0.00 0.00 80 1021.7
20260906123205 16 355 0.0 0.0 0.00 0.00 0.00 80 1021.7
20260906122705 16 355 0.0 0.0 0.00 0.00 0.00 80 1022.0
20260906122204 16 355 0.0 0.0 0.00 0.00 0.00 80 1021.8
20260906121705 16 355 0.0 0.0 0.00 0.00 0.00 79 1021.7
20260906121206 16 355 0.0 0.0 0.00 0.00 0.00 79 1021.7
20260906120705 16 355 0.0 0.0 0.00 0.00 0.00 79 1021.6
20260906120205 16 355 0.0 0.0 0.00 0.00 0.00 79 1021.7
20260906115706 16 355 0.0 0.0 0.00 0.00 0.00 79 1021.7
20260906115205 16 355 0.0 0.0 0.00 0.00 0.00 79 1021.7
20260906114706 16 355 0.0 0.0 0.00 0.00 0.00 78 1021.7
20260906114205 16 355 0.0 0.0 0.00 0.00 0.00 78 1021.7
20260906113706 16 355 0.0 0.0 0.00 0.00 0.00 78 1021.7
20260906113205 16 355 0.0 0.0 0.00 0.00 0.00 78 1021.7
20260906112705 16 355 0.0 0.0 0.00 0.00 0.00 78 1021.7
20260906112206 16 355 0.0 0.0 0.00 0.00 0.00 77 1021.7
20260906111704 16 355 0.0 0.0 0.00 0.00 0.00 77 1021.6
20260906111206 16 355 0.0 0.0 0.00 0.00 0.00 77 1021.5
20260906110705 16 355 0.0 3.2 0.00 0.00 0.00 77 1021.4
20260906110205 16 355 0.0 4.8 0.00 0.00 0.00 77 1021.5
20260906105705 16 355 1.6 4.8 0.00 0.00 0.00 77 1021.5
20260906105205 16 355 1.6 4.8 0.00 0.00 0.00 77 1021.6
20260906104704 16 355 0.0 0.0 0.00 0.00 0.00 77 1021.5
20260906104205 16 355 0.0 0.0 0.00 0.00 0.00 77 1021.5
20260906103205 17 355 0.0 0.0 0.00 0.00 0.00 77 1021.5
20260906102705 17 355 0.0 0.0 0.00 0.00 0.00 76 1021.5
20260906102205 17 355 0.0 0.0 0.00 0.00 0.00 76 1021.5
20260906101705 17 355 0.0 0.0 0.00 0.00 0.00 75 1021.4
20260906101206 17 355 0.0 0.0 0.00 0.00 0.00 75 1021.5
20260906100705 17 355 0.0 0.0 0.00 0.00 0.00 74 1021.4
20260906100205 17 355 0.0 0.0 0.00 0.00 0.00 74 1021.4
20260906095705 17 355 0.0 0.0 0.00 0.00 0.00 73 1021.4
20260906095205 17 355 0.0 0.0 0.00 0.00 0.00 72 1021.3
20260906094705 18 355 0.0 0.0 0.00 0.00 0.00 71 1021.5
20260906094204 18 355 0.0 0.0 0.00 0.00 0.00 71 1021.6
20260906093705 18 355 0.0 0.0 0.00 0.00 0.00 70 1021.5
20260906092205 18 355 0.0 0.0 0.00 0.00 0.00 67 1021.4
20260906091704 18 355 0.0 0.0 0.00 0.00 0.00 66 1021.1
20260906091205 18 355 0.0 0.0 0.00 0.00 0.00 65 1021.0
20260906090705 18 355 0.0 0.0 0.00 0.00 0.00 64 1021.0
20260906090204 18 355 0.0 1.6 0.00 0.00 0.00 64 1020.9
20260906085705 19 355 0.0 1.6 0.00 0.00 0.00 63 1020.9
20260906085205 19 355 0.0 3.2 0.00 0.00 0.00 62 1020.8
20260906084704 19 355 0.0 6.4 0.00 0.00 0.00 61 1020.9
20260906084205 19 355 0.0 6.4 0.00 0.00 0.00 61 1020.8
20260906083705 20 355 1.6 6.4 0.00 0.00 0.00 60 1020.7
20260906083206 20 355 1.6 8.0 0.00 0.00 0.00 59 1020.8
20260906082705 20 355 1.6 8.0 0.00 0.00 0.00 58 1020.7
20260906082206 20 355 3.2 8.0 0.00 0.00 0.00 57 1020.7
20260906081705 20 355 3.2 8.0 0.00 0.00 0.00 56 1020.7
20260906081205 20 5 3.2 8.0 0.00 0.00 0.00 55 1020.7
20260906080705 20 5 3.2 8.0 0.00 0.00 0.00 54 1020.8
20260906075705 20 355 1.6 8.0 0.00 0.00 0.00 54 1020.8
20260906074706 20 182 0.0 0.0 0.00 0.00 0.00 53 1020.5
20260906074205 20 182 0.0 0.0 0.00 0.00 0.00 53 1020.7
20260906073705 20 182 0.0 0.0 0.00 0.00 0.00 53 1020.7
20260906073204 20 182 0.0 0.0 0.00 0.00 0.00 52 1020.7
20260906072705 20 182 0.0 0.0 0.00 0.00 0.00 52 1020.8
20260906072205 20 182 0.0 0.0 0.00 0.00 0.00 53 1020.8
20260906071205 20 182 0.0 0.0 0.00 0.00 0.00 52 1020.7
20260906070705 20 182 0.0 0.0 0.00 0.00 0.00 53 1020.8
20260906070204 21 182 0.0 0.0 0.00 0.00 0.00 51 1020.8
20260906065705 21 182 0.0 0.0 0.00 0.00 0.00 51 1020.7
20260906065205 21 182 0.0 0.0 0.00 0.00 0.00 51 1020.8
20260906064704 21 182 0.0 0.0 0.00 0.00 0.00 50 1020.9
20260906064205 21 182 0.0 3.2 0.00 0.00 0.00 49 1020.9
20260906063704 21 182 0.0 4.8 0.00 0.00 0.00 49 1020.9
20260906063206 21 182 1.6 4.8 0.00 0.00 0.00 48 1020.8
20260906062705 22 182 1.6 4.8 0.00 0.00 0.00 47 1020.9
20260906062205 22 181 0.0 0.0 0.00 0.00 0.00 46 1020.9
20260906061204 22 181 0.0 0.0 0.00 0.00 0.00 46 1020.5
20260906060704 22 181 0.0 0.0 0.00 0.00 0.00 46 1020.5
20260906060204 22 181 0.0 0.0 0.00 0.00 0.00 45 1020.3
20260906055706 22 181 0.0 0.0 0.00 0.00 0.00 45 1020.2
20260906055205 22 181 0.0 0.0 0.00 0.00 0.00 44 1020.5
20260906054705 22 181 0.0 4.8 0.00 0.00 0.00 44 1020.8
20260906054206 22 181 0.0 4.8 0.00 0.00 0.00 44 1020.9
20260906053705 22 181 1.6 4.8 0.00 0.00 0.00 45 1021.0
20260906052705 22 181 1.6 6.4 0.00 0.00 0.00 45 1021.1
20260906052205 22 181 3.2 11.3 0.00 0.00 0.00 45 1021.1
20260906051706 22 181 4.8 11.3 0.00 0.00 0.00 45 1021.4
20260906050705 22 161 1.6 6.4 0.00 0.00 0.00 46 1021.4
20260906050204 22 283 0.0 0.0 0.00 0.00 0.00 46 1021.3
20260906045704 22 283 0.0 0.0 0.00 0.00 0.00 45 1021.0
20260906045206 22 283 0.0 0.0 0.00 0.00 0.00 45 1020.9
20260906043704 22 283 0.0 0.0 0.00 0.00 0.00 45 1020.8
20260906043204 22 283 0.0 0.0 0.00 0.00 0.00 44 1020.8
20260906042704 22 283 0.0 0.0 0.00 0.00 0.00 44 1020.8
20260906042204 22 283 0.0 0.0 0.00 0.00 0.00 46 1020.4
20260906041704 22 283 0.0 0.0 0.00 0.00 0.00 45 1020.4
20260906041205 22 283 0.0 0.0 0.00 0.00 0.00 44 1020.2
20260906040705 22 283 0.0 0.0 0.00 0.00 0.00 44 1020.2
20260906035705 22 283 0.0 0.0 0.00 0.00 0.00 43 1019.8
20260906035204 22 283 0.0 0.0 0.00 0.00 0.00 43 1019.7
20260906034705 23 283 0.0 0.0 0.00 0.00 0.00 43 1019.6
20260906034205 23 283 0.0 0.0 0.00 0.00 0.00 42 1019.7
20260906033204 23 283 0.0 0.0 0.00 0.00 0.00 41 1019.7
20260906032205 23 283 0.0 0.0 0.00 0.00 0.00 40 1019.7
20260906031704 23 283 0.0 0.0 0.00 0.00 0.00 40 1019.6
20260906031204 23 283 0.0 0.0 0.00 0.00 0.00 39 1019.5
20260906030705 23 283 0.0 0.0 0.00 0.00 0.00 40 1019.4
20260906025705 23 283 0.0 0.0 0.00 0.00 0.00 40 1019.1
20260906025205 23 283 0.0 0.0 0.00 0.00 0.00 40 1019.0
20260906024705 24 283 0.0 0.0 0.00 0.00 0.00 39 1018.9
20260906024205 24 283 0.0 0.0 0.00 0.00 0.00 39 1018.9
20260906023206 25 283 0.0 0.0 0.00 0.00 0.00 39 1018.9
20260906022206 25 283 0.0 0.0 0.00 0.00 0.00 36 1018.8
20260906021706 25 283 0.0 3.2 0.00 0.00 0.00 36 1018.8
20260906021205 26 283 0.0 4.8 0.00 0.00 0.00 35 1018.9
20260906020205 26 283 1.6 8.0 0.00 0.00 0.00 34 1018.8
20260906015704 26 283 1.6 8.0 0.00 0.00 0.00 33 1018.8
20260906014204 27 283 1.6 6.4 0.00 0.00 0.00 33 1018.7
20260906013704 27 282 1.6 4.8 0.00 0.00 0.00 32 1018.6
20260906013206 27 282 0.0 4.8 0.00 0.00 0.00 32 1018.4
20260906012705 27 282 1.6 6.4 0.00 0.00 0.00 32 1018.4
20260906011705 28 282 1.6 8.0 0.00 0.00 0.00 30 1018.6
20260906011205 28 282 3.2 9.7 0.00 0.00 0.00 30 1018.6
20260906010705 28 281 3.2 9.7 0.00 0.00 0.00 29 1018.4
20260906010205 29 281 3.2 11.3 0.00 0.00 0.00 28 1018.4
20260906005704 29 279 4.8 14.5 0.00 0.00 0.00 27 1018.3
20260906004705 30 277 4.8 16.1 0.00 0.00 0.00 27 1018.4
20260906004206 30 288 4.8 16.1 0.00 0.00 0.00 26 1018.4
20260906003705 30 293 4.8 16.1 0.00 0.00 0.00 26 1018.4
20260906002705 31 310 3.2 12.9 0.00 0.00 0.00 25 1018.4
20260906002204 31 22 3.2 17.7 0.00 0.00 0.00 25 1018.4
20260906001705 31 287 4.8 17.7 0.00 0.00 0.00 25 1018.3
20260906000705 31 274 1.6 6.4 0.00 0.00 0.00 24 1018.3
20260906000206 31 319 0.0 3.2 0.00 0.00 0.00 25 1018.2
20260905235705 31 319 0.0 4.8 0.00 0.00 0.00 25 1018.2
20260905235205 31 319 0.0 6.4 0.00 0.00 0.00 25 1018.2
20260905234705 32 319 0.0 6.4 0.00 0.00 0.00 24 1018.3
20260905233705 32 5 0.0 8.0 0.00 0.00 0.00 22 1018.2
20260905233205 33 5 1.6 11.3 0.00 0.00 0.00 23 1018.1
20260905232707 33 5 1.6 11.3 0.00 0.00 0.00 21 1018.1
20260905232205 33 0 3.2 11.3 0.00 0.00 0.00 21 1018.0
20260905231705 33 346 3.2 11.3 0.00 0.00 0.00 22 1018.1
20260905231205 33 11 1.6 8.0 0.00 0.00 0.00 20 1018.0
20260905230204 34 16 1.6 9.7 0.00 0.00 0.00 20 1017.9
20260905225706 34 355 1.6 9.7 0.00 0.00 0.00 22 1017.9
20260905225205 34 298 3.2 9.7 0.00 0.00 0.00 20 1017.9
20260905224705 34 5 3.2 9.7 0.00 0.00 0.00 20 1017.9
20260905224205 35 271 1.6 14.5 0.00 0.00 0.00 20 1017.9
20260905223705 35 28 3.2 14.5 0.00 0.00 0.00 20 1017.9
20260905223205 35 33 3.2 8.0 0.00 0.00 0.00 22 1017.9
20260905222205 33 248 1.6 8.0 0.00 0.00 0.00 21 1017.9
20260905221706 33 298 1.6 8.0 0.00 0.00 0.00 22 1018.0